Location: ??????
(31.2056°N, 45.3906°E)
Time: 21:47:28
(UTC+00:00)

IRIDIUM 106 - Pass Details

Date: 09 April 2020
Orbit: 776 x 779 km, 86.4° (Epoch: 02 June)

Event Time Altitude Azimuth Distance (km) Brightness Sun altitude
Rises 15:58:16 0° 4° (N) 3,265 7.7 -8.2°
Reaches altitude 10° 16:00:41 10° 9° (N) 2,333 6.9 -8.7°
Maximum altitude 16:05:47 53° 86° (E) 948 4.5 -9.7°
Drops below altitude 10° 16:10:51 10° 163° (SSE) 2,319 6.5 -10.8°
Sets 16:13:14 0° 168° (SSE) 3,242 7.3 -11.3°
